"2016-01-24 00:00:00",1311771,4.126,190.5,0.794,0.058,14.13,104.8206,11.61,12.66,11.1,0,110.4,13.19,12.41,152.5
"2016-01-24 00:00:30",1311772,4.373,189.1,1.111,0.078,14.22,104.8216,11.62,12.65,11.21,0,110.4,13.19,12.41,151.1
"2016-01-24 00:01:00",1311773,4.435,187.5,1.589,0.093,14.49,104.8126,11.59,12.64,11.36,0,110.4,13.19,12.39,149.5
"2016-01-24 00:01:30",1311774,4.551,186,0.971,0.079,14.96,104.8073,11.58,12.68,11.57,0,110.4,13.19,12.37,148.0
"2016-01-24 00:02:00",1311775,5.95,192.4,7.894,1.445,17.94,104.7955,11.55,12.8,11.84,0,110.4,13.15,12.34,154.4
"2016-01-24 00:02:30",1311776,5.157,191.6,6.863,1.388,16.66,104.7957,11.55,12.81,12.29,0,110.4,13.15,12.34,153.6
"2016-01-24 00:03:00",1311777,5.139,191.9,6.986,1.381,16.12,104.7962,11.55,12.71,12.53,0,110.4,13.16,12.34,153.9
"2016-01-24 00:03:30",1311778,5.263,192.2,7.285,1.364,16.43,104.7983,11.56,12.77,12.73,0,110.4,13.16,12.35,154.2
"2016-01-24 00:04:00",1311779,4.529,187.1,4.504,0.872,14.6,104.7971,11.55,12.63,12.64,0,110.4,13.16,12.35,149.1
"2016-01-24 00:04:30",1311780,4.298,184.2,0.525,0.064,14.06,104.7921,11.54,12.55,12.6,0,110.4,13.21,12.33,146.2
"2016-01-24 00:05:00",1311781,4.482,184.8,0.328,0.105,14.15,104.7789,11.51,12.56,12.7,0,110.4,13.21,12.30,146.8
"2016-01-24 00:05:30",1311782,4.938,182.8,0.912,0.07,14.43,104.7716,11.49,12.55,12.69,0,110.4,13.21,12.28,144.8
"2016-01-24 00:06:00",1311783,5.793,186,7.164,1.353,16.37,104.7716,11.49,12.72,12.83,0,110.4,13.16,12.28,148.0
"2016-01-24 00:06:30",1311784,7.079,191.7,6.95,1.281,18.06,104.7716,11.49,12.66,12.76,0,110.4,13.16,12.28,153.7
"2016-01-24 00:07:00",1311785,5.777,187.5,6.518,1.279,16.26,104.764,11.47,12.67,12.78,0,110.4,13.17,12.26,149.5
"2016-01-24 00:07:30",1311786,4.924,184.5,0.481,0.044,14.22,104.7572,11.45,12.49,12.6,0,110.4,13.21,12.24,146.5
"2016-01-24 00:08:00",1311787,5.702,188.9,6.637,1.317,15.71,104.7487,11.43,12.6,12.56,0,110.4,13.16,12.22,150.9
"2016-01-24 00:08:30",1311788,5.955,191,7.282,1.412,16.66,104.7377,11.4,12.58,12.48,0,110.4,13.16,12.19,153.0
"2016-01-24 00:09:00",1311789,4.306,185.4,0.636,0.1,14.62,104.7377,11.4,12.49,12.39,0,110.4,13.21,12.19,147.4
"2016-01-24 00:09:30",1311790,4.321,185,0.981,0.191,14.62,104.7377,11.4,12.45,12.4,0,110.4,13.21,12.19,147.0
"2016-01-24 00:10:00",1311791,5.244,187.9,6.532,1.137,16.09,104.7377,11.4,12.54,12.52,0,110.4,13.16,12.19,149.9
"2016-01-24 00:10:30",1311792,6.026,189.7,7.254,1.401,17.45,104.7374,11.4,12.64,12.58,0,110.4,13.17,12.19,151.7
"2016-01-24 00:11:00",1311793,6.135,187.8,7.513,1.389,17.29,104.7344,11.39,12.57,12.45,0,110.3,13.17,12.18,149.8
"2016-01-24 00:11:30",1311794,4.894,190.2,8.23,0.941,15.24,104.7302,11.38,12.53,12.37,0,110.4,13.17,12.17,152.2
"2016-01-24 00:12:00",1311795,4.576,182.4,4.057,0.098,14.01,104.7312,11.38,12.41,11.97,0,110.3,13.21,12.18,144.4
"2016-01-24 00:12:30",1311796,4.657,179.2,0.863,0.065,14.04,104.7318,11.39,12.41,12.29,0,110.3,13.21,12.18,141.2
"2016-01-24 00:13:00",1311797,4.954,183.4,6.446,1.194,15.73,104.7296,11.38,12.55,12.51,0,110.3,13.17,12.17,145.4
"2016-01-24 00:13:30",1311798,5.689,190.4,7.491,1.412,17.7,104.7311,11.38,12.59,12.68,0,110.3,13.17,12.18,152.4
"2016-01-24 00:14:00",1311799,4.345,187.5,5.001,0.569,15.48,104.7295,11.38,12.45,12.59,0,110.3,13.17,12.17,149.5
"2016-01-24 00:14:30",1311800,5.547,198.2,6.953,1.485,17.49,104.7239,11.37,12.51,12.38,0,110.3,13.17,12.16,160.2
"2016-01-24 00:15:00",1311801,4.615,194.4,8.5,1.099,16.91,104.7243,11.37,12.62,12.21,0,110.3,13.17,12.16,156.4
"2016-01-24 00:15:30",1311802,5.074,187.3,8.14,1.408,16.75,104.7306,11.38,12.51,12.3,0,110.3,13.16,12.17,149.3
"2016-01-24 00:16:00",1311803,3.373,181.2,11.46,0.574,14.55,104.7561,11.45,12.39,12.02,0,110.3,13.21,12.24,143.2
"2016-01-24 00:16:30",1311804,3.589,201.5,7.738,0.554,14.62,104.7681,11.48,12.42,11.91,0,110.3,13.21,12.27,163.5
"2016-01-24 00:17:00",1311805,4.034,180.7,2.907,0.326,14.29,104.7711,11.49,12.43,11.91,0,110.3,13.21,12.28,142.7
"2016-01-24 00:17:30",1311806,4.444,184.9,1.536,0.158,14.38,104.7669,11.48,12.44,12.11,0,110.3,13.21,12.27,146.9
"2016-01-24 00:18:00",1311807,5.053,193.5,8.9,1.157,16.34,104.769,11.48,12.57,12.27,0,110.3,13.17,12.27,155.5
"2016-01-24 00:18:30",1311808,4.762,188.3,6.688,1.229,16.98,104.7711,11.49,12.59,12.15,0,110.3,13.16,12.28,150.3
"2016-01-24 00:19:00",1311809,5.573,193.8,8.21,1.402,17.93,104.7711,11.49,12.56,12.02,0,110.3,13.16,12.28,155.8
"2016-01-24 00:19:30",1311810,6.007,193.7,8.48,1.494,17.8,104.7714,11.49,12.61,12.13,0,110.3,13.17,12.28,155.7
"2016-01-24 00:20:00",1311811,4.819,189.5,4.86,1.415,15.92,104.7732,11.49,12.54,12.12,0,110.3,13.17,12.28,151.5
"2016-01-24 00:20:30",1311812,3.768,185.4,3.483,0.212,13.98,104.7732,11.49,12.45,12.02,0,110.3,13.22,12.28,147.4
"2016-01-24 00:21:00",1311813,3.821,196.3,9.49,0.488,14.06,104.7732,11.49,12.44,11.96,0,110.3,13.22,12.28,158.3
"2016-01-24 00:21:30",1311814,3.202,213.5,4.406,0.309,14.49,104.7732,11.49,12.44,11.88,0,110.3,13.22,12.28,175.5
"2016-01-24 00:22:00",1311815,2.661,205.3,9.45,0.453,14.88,104.7732,11.49,12.46,11.87,0,110.3,13.23,12.28,167.3
"2016-01-24 00:22:30",1311816,3.119,187.1,6.648,0.684,14.93,104.7732,11.49,12.45,11.85,0,110.4,13.23,12.28,149.1
"2016-01-24 00:23:00",1311817,3.086,197.1,8.82,0.872,15.78,104.7732,11.49,12.48,11.9,0,110.3,13.18,12.28,159.1
"2016-01-24 00:23:30",1311818,4.247,191.6,11.96,1.371,18.43,104.7732,11.49,12.62,12.04,0,110.4,13.18,12.28,153.6
"2016-01-24 00:24:00",1311819,4.03,182.7,9.09,1.442,18.43,104.7732,11.49,12.67,12.09,0,110.3,13.18,12.28,144.7
"2016-01-24 00:24:30",1311820,3.249,198.9,12.35,1.206,18.31,104.7732,11.49,12.61,12.03,0,110.3,13.18,12.28,160.9
"2016-01-24 00:25:00",1311821,2.635,188.6,6.315,0.564,14.97,104.7729,11.49,12.5,11.89,0,110.3,13.18,12.28,150.6
"2016-01-24 00:25:30",1311822,2.978,194,5.302,0.444,14.08,104.7721,11.49,12.45,11.82,0,110.3,13.23,12.28,156.0
"2016-01-24 00:26:00",1311823,3.066,192.2,3.845,0.362,14.12,104.7675,11.48,12.46,11.72,0,110.3,13.23,12.27,154.2
"2016-01-24 00:26:30",1311824,3.426,191.4,2.441,0.216,14.2,104.765,11.47,12.46,11.75,0,110.3,13.23,12.26,153.4
"2016-01-24 00:27:00",1311825,3.173,192.5,2.449,0.265,14.57,104.7619,11.46,12.46,11.8,0,110.3,13.23,12.26,154.5
"2016-01-24 00:27:30",1311826,3.131,196,3.29,0.172,14.85,104.7565,11.45,12.46,11.79,0,110.3,13.23,12.24,158.0
"2016-01-24 00:28:00",1311827,3.434,194.5,2.565,0.19,15.08,104.7501,11.43,12.45,11.76,0,110.3,13.23,12.22,156.5
"2016-01-24 00:28:30",1311828,4.024,204.1,10.44,1.306,16.75,104.7424,11.41,12.52,11.81,0,110.3,13.19,12.21,166.1
"2016-01-24 00:29:00",1311829,5.868,207.2,7.829,1.237,19.14,104.7393,11.41,12.71,12.04,0,110.3,13.18,12.20,169.2
"2016-01-24 00:29:30",1311830,5.579,207.4,9.62,1.362,18.88,104.7393,11.41,12.69,12.06,0,110.3,13.18,12.20,169.4
"2016-01-24 00:30:00",1311831,3.874,199.1,7.8,1.055,16.8,104.7396,11.41,12.58,11.92,0,110.3,13.18,12.20,161.1
"2016-01-24 00:30:30",1311832,3.937,196.1,7.358,0.273,14.35,104.7399,11.41,12.42,11.76,0,110.3,13.23,12.20,158.1
"2016-01-24 00:31:00",1311833,3.824,190.6,4.639,0.376,14.29,104.7417,11.41,12.43,11.83,0,110.3,13.23,12.20,152.6
"2016-01-24 00:31:30",1311834,3.163,195,7.846,0.361,14.69,104.7411,11.41,12.42,11.86,0,110.3,13.23,12.20,157.0
"2016-01-24 00:32:00",1311835,3.204,200.9,5.101,0.334,14.96,104.7441,11.42,12.44,11.77,0,110.3,13.23,12.21,162.9
"2016-01-24 00:32:30",1311836,3.013,190.4,7.724,0.585,15.15,104.7435,11.42,12.43,11.79,0,110.3,13.23,12.21,152.4
"2016-01-24 00:33:00",1311837,4.521,196,11.16,1.232,16.72,104.7447,11.42,12.49,11.99,0,110.3,13.18,12.21,158.0
"2016-01-24 00:33:30",1311838,4.668,204.5,9.47,1.405,17.51,104.7465,11.42,12.63,12.11,0,110.3,13.18,12.22,166.5
"2016-01-24 00:34:00",1311839,4.619,204.3,7.707,1.392,18.06,104.7486,11.43,12.64,12.04,0,110.3,13.18,12.22,166.3
"2016-01-24 00:34:30",1311840,4.379,204.6,8.35,1.475,17.9,104.7479,11.43,12.65,12.05,0,110.3,13.18,12.22,166.6
"2016-01-24 00:35:00",1311841,4.297,196.4,8.78,1.493,16.57,104.7433,11.42,12.51,12.05,0,110.3,13.18,12.21,158.4
"2016-01-24 00:35:30",1311842,3.45,195.3,7.921,0.376,14.4,104.7437,11.42,12.41,11.95,0,110.3,13.22,12.21,157.3
"2016-01-24 00:36:00",1311843,3.963,196.2,4.939,0.547,14.28,104.7437,11.42,12.41,12.08,0,110.3,13.23,12.21,158.2
"2016-01-24 00:36:30",1311844,4.251,197,8.3,0.349,14.46,104.7469,11.42,12.42,12.22,0,110.3,13.23,12.22,159.0
"2016-01-24 00:37:00",1311845,4.517,198.2,2.463,0.169,14.69,104.7481,11.43,12.42,12.4,0,110.3,13.23,12.22,160.2
"2016-01-24 00:37:30",1311846,3.912,201.7,4.548,0.258,15.41,104.7428,11.41,12.48,12.44,0,110.3,13.24,12.21,163.7
"2016-01-24 00:38:00",1311847,5.923,222.3,8.44,1.448,18.18,104.7446,11.42,12.58,12.15,0,110.3,13.19,12.21,184.3
"2016-01-24 00:38:30",1311848,4.32,199.8,9.27,1.519,17.58,104.7446,11.42,12.61,12.04,0,110.3,13.19,12.21,161.8
"2016-01-24 00:39:00",1311849,3.465,196.7,6.717,1.353,16.03,104.7457,11.42,12.44,11.81,0,110.3,13.19,12.21,158.7
"2016-01-24 00:39:30",1311850,3.733,206.5,10.83,1.215,16.31,104.7469,11.42,12.56,11.87,0,110.3,13.19,12.22,168.5
"2016-01-24 00:40:00",1311851,4.16,196.7,7.64,1.527,16.92,104.749,11.43,12.54,11.88,0,110.3,13.19,12.22,158.7
"2016-01-24 00:40:30",1311852,2.32,222.9,13.36,0.34,14.66,104.7499,11.43,12.41,11.75,0,110.3,13.24,12.22,184.9
"2016-01-24 00:41:00",1311853,2.757,208,11.8,0.504,14.62,104.7473,11.43,12.41,11.82,0,110.3,13.24,12.22,170.0
"2016-01-24 00:41:30",1311854,4.338,189.2,11.09,0.791,14.61,104.7523,11.44,12.41,11.99,0,110.3,13.24,12.23,151.2
"2016-01-24 00:42:00",1311855,3.394,210.9,11.24,0.598,14.91,104.7621,11.46,12.42,12.27,0,110.3,13.24,12.26,172.9
"2016-01-24 00:42:30",1311856,4.803,213.6,8.14,1.845,16.14,104.773,11.49,12.44,12.32,0,110.3,13.19,12.28,175.6
"2016-01-24 00:43:00",1311857,4.241,209.1,11.21,1.187,17.76,104.7812,11.51,12.66,12.52,0,110.3,13.19,12.30,171.1
"2016-01-24 00:43:30",1311858,3.895,202.5,14.94,1.613,18.04,104.7965,11.55,12.66,12.36,0,110.3,13.19,12.34,164.5
"2016-01-24 00:44:00",1311859,4.03,193.2,9.64,0.759,14.89,104.8056,11.57,12.46,12.19,0,110.3,13.19,12.37,155.2
"2016-01-24 00:44:30",1311860,3.992,197.7,4.122,0.511,14.58,104.8075,11.58,12.55,12.27,0,110.3,13.24,12.37,159.7
"2016-01-24 00:45:00",1311861,5.426,200.7,6.828,1.506,16.98,104.8047,11.57,12.61,12.31,0,110.3,13.19,12.37,162.7
"2016-01-24 00:45:30",1311862,4.798,196.2,5.057,0.977,15.51,104.7977,11.55,12.6,12.51,0,110.3,13.19,12.35,158.2
"2016-01-24 00:46:00",1311863,4.13,196.3,1.341,0.134,14.56,104.7937,11.54,12.49,12.55,0,110.3,13.24,12.34,158.3
"2016-01-24 00:46:30",1311864,4.203,193.3,2.168,0.103,14.75,104.7869,11.53,12.49,12.56,0,110.3,13.24,12.32,155.3
"2016-01-24 00:47:00",1311865,4.759,193.7,4.982,1.145,15.73,104.7779,11.5,12.49,12.6,0,110.3,13.19,12.30,155.7
"2016-01-24 00:47:30",1311866,5.865,198.8,7.79,1.384,18.32,104.7751,11.5,12.72,12.84,0,110.3,13.19,12.29,160.8
"2016-01-24 00:48:00",1311867,5.596,197,8.49,1.459,17.9,104.7748,11.5,12.65,12.59,0,110.3,13.19,12.29,159.0
"2016-01-24 00:48:30",1311868,4.269,191.4,3.07,0.41,14.43,104.7748,11.5,12.48,12.34,0,110.3,13.23,12.29,153.4
"2016-01-24 00:49:00",1311869,4.261,197.8,5.422,0.201,14.39,104.7748,11.5,12.48,12.42,0,110.3,13.23,12.29,159.8
"2016-01-24 00:49:30",1311870,4.323,200.4,9.14,0.906,15.63,104.7748,11.5,12.57,12.54,0,110.3,13.19,12.29,162.4
"2016-01-24 00:50:00",1311871,4.381,205.5,9.78,1.466,16.32,104.7734,11.49,12.57,12.47,0,110.3,13.18,12.28,167.5
"2016-01-24 00:50:30",1311872,3.755,206.9,9.66,1.307,16.32,104.7703,11.48,12.55,12.34,0,110.3,13.19,12.28,168.9
"2016-01-24 00:51:00",1311873,3.518,197.8,8.13,0.554,14.84,104.7737,11.49,12.48,12.31,0,110.3,13.23,12.29,159.8
"2016-01-24 00:51:30",1311874,4.941,204.6,10.78,1.905,16.47,104.7748,11.5,12.54,12.53,0,110.3,13.19,12.29,166.6
"2016-01-24 00:52:00",1311875,6.003,209.9,11.12,1.724,18.14,104.7748,11.5,12.7,12.72,0,110.4,13.19,12.29,171.9
"2016-01-24 00:52:30",1311876,4.474,213.5,11.07,1.413,18.49,104.7748,11.5,12.64,12.66,0,110.3,13.19,12.29,175.5
"2016-01-24 00:53:00",1311877,3.519,209.5,9.12,0.477,14.6,104.7748,11.5,12.46,12.55,0,110.3,13.23,12.29,171.5
"2016-01-24 00:53:30",1311878,3.391,181.5,10.76,0.392,14.31,104.7748,11.5,12.47,12.54,0,110.3,13.24,12.29,143.5
"2016-01-24 00:54:00",1311879,3.924,178.6,6.573,0.386,14.28,104.7748,11.5,12.47,12.41,0,110.3,13.24,12.29,140.6
"2016-01-24 00:54:30",1311880,4.089,184,11.98,0.486,14.58,104.7748,11.5,12.54,12.44,0,110.3,13.2,12.29,146.0
"2016-01-24 00:55:00",1311881,5.047,192.5,12.49,1.346,17.23,104.7748,11.5,12.61,12.5,0,110.3,13.19,12.29,154.5
"2016-01-24 00:55:30",1311882,4.783,175.4,7.596,0.823,15.31,104.7748,11.5,12.55,12.43,0,110.3,13.2,12.29,137.4
"2016-01-24 00:56:00",1311883,6.014,186.5,7.375,1.366,17.39,104.7748,11.5,12.64,12.49,0,110.3,13.19,12.29,148.5
"2016-01-24 00:56:30",1311884,5.689,193.9,9.23,1.367,18.22,104.7739,11.49,12.68,12.78,0,110.3,13.19,12.29,155.9
"2016-01-24 00:57:00",1311885,4.394,166.7,21.92,1.032,15.77,104.7725,11.49,12.55,12.63,0,110.3,13.19,12.28,128.7
"2016-01-24 00:57:30",1311886,4.87,163.1,7.015,0.45,13.8,104.7652,11.47,12.46,13,0,110.3,13.24,12.26,125.1
"2016-01-24 00:58:00",1311887,4.719,175.6,7.856,0.557,14.05,104.7593,11.46,12.45,13.17,0,110.3,13.24,12.25,137.6
"2016-01-24 00:58:30",1311888,3.744,184,4.844,0.275,14.52,104.7491,11.43,12.44,12.87,0,110.3,13.24,12.22,146.0
"2016-01-24 00:59:00",1311889,3.433,187.3,5.434,0.427,14.84,104.7418,11.41,12.44,12.62,0,110.3,13.24,12.20,149.3
"2016-01-24 00:59:30",1311890,3.909,188.4,6.416,1.43,16.34,104.7412,11.41,12.52,12.62,0,110.3,13.2,12.20,150.4
"2016-01-24 01:00:00",1311891,5.542,203.7,8.45,1.72,17.29,104.7409,11.41,12.58,12.69,0,110.3,13.2,12.20,165.7
"2016-01-24 01:00:30",1311892,6.236,195.3,14.72,1.427,18.84,104.7409,11.41,12.66,12.92,0,110.3,13.19,12.20,157.3
"2016-01-24 01:01:00",1311893,5.856,190,9.99,1.478,17.77,104.7409,11.41,12.66,13.11,0,110.3,13.2,12.20,152.0
"2016-01-24 01:01:30",1311894,4.526,191.5,6.272,1.25,15.26,104.7409,11.41,12.44,12.93,0,110.3,13.2,12.20,153.5
"2016-01-24 01:02:00",1311895,2.702,190.2,12.99,0.562,14.26,104.7412,11.41,12.43,12.75,0,110.3,13.24,12.20,152.2
"2016-01-24 01:02:30",1311896,4.024,173.2,9.05,0.3,14.13,104.7409,11.41,12.42,12.77,0,110.3,13.24,12.20,135.2
"2016-01-24 01:03:00",1311897,3.618,185.5,7.517,0.506,14.36,104.7412,11.41,12.42,12.76,0,110.3,13.24,12.20,147.5
"2016-01-24 01:03:30",1311898,3.837,173.3,2.345,0.593,14.38,104.7409,11.41,12.41,13.08,0,110.3,13.24,12.20,135.3
"2016-01-24 01:04:00",1311899,4.468,178.6,10,0.541,14.69,104.7412,11.41,12.42,13.4,0,110.3,13.24,12.20,140.6
"2016-01-24 01:04:30",1311900,5.656,184.6,9.45,1.527,17.97,104.7412,11.41,12.66,13.49,0,110.3,13.2,12.20,146.6
"2016-01-24 01:05:00",1311901,6.468,179,6.681,1.476,18.78,104.7412,11.41,12.66,13.63,0,110.3,13.19,12.20,141.0
"2016-01-24 01:05:30",1311902,6.582,182.5,7.042,1.476,17.49,104.7415,11.41,12.67,14.02,0,110.3,13.19,12.20,144.5
"2016-01-24 01:06:00",1311903,5.882,175.5,8.68,1.139,15.62,104.7424,11.41,12.51,13.93,0,110.3,13.19,12.21,137.5
"2016-01-24 01:06:30",1311904,5.403,167.1,2.215,0.248,13.98,104.7442,11.42,12.41,13.96,0,110.3,13.23,12.21,129.1
"2016-01-24 01:07:00",1311905,5.491,168.4,1.531,0.24,14.09,104.7442,11.42,12.4,13.8,0,110.3,13.23,12.21,130.4
"2016-01-24 01:07:30",1311906,5.547,166.7,1.606,0.132,14.32,104.7428,11.41,12.41,13.87,0,110.3,13.24,12.21,128.7
"2016-01-24 01:08:00",1311907,5.404,165.9,2.004,0.294,14.65,104.7455,11.42,12.41,13.8,0,110.3,13.24,12.21,127.9
"2016-01-24 01:08:30",1311908,6.689,173.3,7.057,1.308,16.95,104.7423,11.41,12.55,13.9,0,110.3,13.19,12.20,135.3
"2016-01-24 01:09:00",1311909,6.727,177.1,8.24,1.395,18.51,104.7438,11.42,12.63,13.91,0,110.3,13.19,12.21,139.1
"2016-01-24 01:09:30",1311910,6.369,179.9,8.26,1.497,18.19,104.7419,11.41,12.62,13.72,0,110.3,13.19,12.20,141.9
"2016-01-24 01:10:00",1311911,5.423,175.4,9.06,1.042,15.87,104.7447,11.42,12.51,13.46,0,110.3,13.19,12.21,137.4
"2016-01-24 01:10:30",1311912,5.217,170.1,4.441,0.319,14.08,104.7456,11.42,12.4,13.35,0,110.3,13.24,12.21,132.1
"2016-01-24 01:11:00",1311913,4.42,168.9,4.953,0.382,14.09,104.747,11.42,12.4,13.33,0,110.3,13.24,12.22,130.9
"2016-01-24 01:11:30",1311914,4.246,171,3.06,0.215,14.44,104.749,11.43,12.41,13.21,0,110.3,13.24,12.22,133.0
"2016-01-24 01:12:00",1311915,4.302,174.2,4.166,0.212,14.58,104.749,11.43,12.38,13.16,0,110.3,13.24,12.22,136.2
"2016-01-24 01:12:30",1311916,5.518,176.6,10.35,1.277,17,104.7513,11.44,12.53,13.49,0,110.3,13.2,12.23,138.6
"2016-01-24 01:13:00",1311917,5.738,172.6,9.14,1.535,16.9,104.7495,11.43,12.5,13.51,0,110.3,13.2,12.22,134.6
"2016-01-24 01:13:30",1311918,6.213,175.3,9.59,1.491,17.3,104.7519,11.44,12.56,13.66,0,110.3,13.2,12.23,137.3
"2016-01-24 01:14:00",1311919,7.165,173.1,7.94,1.396,17.39,104.7513,11.44,12.63,13.69,0,110.3,13.2,12.23,135.1
"2016-01-24 01:14:30",1311920,6.057,168.2,7.756,1.315,15.35,104.7473,11.43,12.55,13.47,0,110.3,13.2,12.22,130.2
"2016-01-24 01:15:00",1311921,5.718,160.6,4.722,0.274,13.78,104.7409,11.41,12.4,13.35,0,110.3,13.24,12.20,122.6
"2016-01-24 01:15:30",1311922,5.591,162.2,2.529,0.302,13.74,104.73,11.38,12.39,13.36,0,110.3,13.24,12.17,124.2
"2016-01-24 01:16:00",1311923,5.977,165.5,6.86,1.289,15.44,104.7212,11.36,12.48,13.36,0,110.3,13.2,12.15,127.5
"2016-01-24 01:16:30",1311924,6.055,165.9,7.032,1.5,16.17,104.7224,11.36,12.55,13.39,0,110.3,13.2,12.15,127.9
"2016-01-24 01:17:00",1311925,6.688,164.1,7.411,1.111,15.29,104.7201,11.36,12.39,13.23,0,110.3,13.2,12.15,126.1
"2016-01-24 01:17:30",1311926,7.428,168.5,7.595,1.366,16.88,104.7148,11.34,12.58,13.36,0,110.3,13.2,12.13,130.5
"2016-01-24 01:18:00",1311927,7.852,170.7,7.112,1.4,17.44,104.7044,11.32,12.57,13.56,0,110.3,13.2,12.11,132.7
"2016-01-24 01:18:30",1311928,7.319,167.4,7.09,1.438,16.19,104.6948,11.29,12.46,13.5,0,110.3,13.2,12.08,129.4
"2016-01-24 01:19:00",1311929,6.294,161.1,0.49,0.111,13.71,104.688,11.27,12.32,13.35,0,110.3,13.24,12.07,123.1
"2016-01-24 01:19:30",1311930,6.378,161.5,3.686,0.939,14.36,104.6852,11.27,12.38,13.19,0,110.3,13.2,12.06,123.5
"2016-01-24 01:20:00",1311931,7.712,167.7,7.73,1.523,16.46,104.6754,11.24,12.42,13.51,0,110.3,13.2,12.03,129.7
"2016-01-24 01:20:30",1311932,6.435,162.4,4.378,0.58,14.67,104.6636,11.21,12.36,13.79,0,110.3,13.2,12.00,124.4
"2016-01-24 01:21:00",1311933,7.242,163.6,5.22,1.144,15.17,104.6574,11.2,12.33,13.72,0,110.3,13.2,11.99,125.6
"2016-01-24 01:21:30",1311934,8.42,167.5,6.949,1.382,16.9,104.6568,11.19,12.41,13.34,0,110.3,13.2,11.99,129.5
"2016-01-24 01:22:00",1311935,8.18,165.5,7.175,1.451,16.81,104.6574,11.2,12.46,13.09,0,110.3,13.19,11.99,127.5
"2016-01-24 01:22:30",1311936,7.361,162.7,5.813,1.125,15.01,104.6527,11.18,12.29,12.99,0,110.3,13.19,11.97,124.7
"2016-01-24 01:23:00",1311937,7.484,163.5,6.313,1.27,15.15,104.6396,11.15,12.31,12.93,0,110.3,13.19,11.94,125.5
"2016-01-24 01:23:30",1311938,8.03,164,7.03,1.259,15.4,104.6334,11.13,12.29,13.97,0,110.3,13.19,11.93,126.0
"2016-01-24 01:24:00",1311939,7.32,162,4.388,0.966,14.76,104.627,11.12,12.25,13.74,0,110.3,13.19,11.91,124.0
"2016-01-24 01:24:30",1311940,7.723,165.1,6.809,1.316,15.61,104.6256,11.11,12.27,13.18,0,110.3,13.19,11.91,127.1
"2016-01-24 01:25:00",1311941,7.626,164.5,6.224,1.331,15.41,104.6225,11.11,12.28,13.33,0,110.3,13.19,11.90,126.5
"2016-01-24 01:25:30",1311942,7.607,166,6.376,1.332,15.19,104.6092,11.07,12.22,13.35,0,110.3,13.19,11.86,128.0
"2016-01-24 01:26:00",1311943,7.721,169.7,7.137,1.437,16.66,104.6025,11.06,12.33,13.59,0,110.3,13.19,11.85,131.7
"2016-01-24 01:26:30",1311944,7.356,167.1,6.948,1.338,16.14,104.5961,11.04,12.26,13.75,0,110.3,13.19,11.83,129.1
"2016-01-24 01:27:00",1311945,7.987,168.2,7.245,1.429,16.3,104.5923,11.03,12.19,13.53,0,110.3,13.19,11.82,130.2
"2016-01-24 01:27:30",1311946,6.402,161,0.595,0.091,13.78,104.5929,11.03,12.07,13.38,0,110.3,13.24,11.82,123.0
"2016-01-24 01:28:00",1311947,7.289,164.3,6.529,1.297,15.04,104.5943,11.03,12.15,13.67,0,110.3,13.2,11.82,126.3
"2016-01-24 01:28:30",1311948,7.132,165.4,6.286,1.312,15.47,104.5949,11.04,12.21,13.69,0,110.3,13.2,11.83,127.4
"2016-01-24 01:29:00",1311949,6.672,162,3.64,0.738,13.95,104.5973,11.04,12.04,13.4,0,110.3,13.21,11.83,124.0
"2016-01-24 01:29:30",1311950,7.416,166.1,6.878,1.341,15.83,104.5973,11.04,12.24,13.76,0,110.3,13.21,11.83,128.1
"2016-01-24 01:30:00",1311951,8.26,168.3,7.183,1.405,17.06,104.594,11.03,12.17,13.78,0,110.3,13.2,11.82,130.3
"2016-01-24 01:30:30",1311952,7.577,166.7,7.467,1.432,16.48,104.5931,11.03,12.23,13.87,0,110.2,13.21,11.82,128.7
"2016-01-24 01:31:00",1311953,6.78,161.9,6.224,1.076,15.04,104.5934,11.03,12,13.96,0,110.3,13.21,11.82,123.9
"2016-01-24 01:31:30",1311954,6.653,157.8,3.923,1.012,15.02,104.5985,11.05,12.09,14.26,0,110.3,13.21,11.84,119.8
"2016-01-24 01:32:00",1311955,7.287,166.1,6.157,1.558,16.57,104.5994,11.05,12.13,14.29,0,110.3,13.21,11.84,128.1
"2016-01-24 01:32:30",1311956,6.479,157.2,1.841,0.427,13.9,104.5994,11.05,12.04,14.21,0,110.3,13.25,11.84,119.2
"2016-01-24 01:33:00",1311957,7.681,158.9,5.601,1.367,14.63,104.5985,11.04,12.08,15.18,0,110.3,13.21,11.84,120.9
"2016-01-24 01:33:30",1311958,8.6,166,6.879,1.386,17.51,104.5985,11.04,12.2,15.19,0,110.3,13.21,11.84,128.0
"2016-01-24 01:34:00",1311959,7.903,163.9,6.422,1.308,15.91,104.5994,11.05,12.19,15.6,0,110.3,13.21,11.84,125.9
"2016-01-24 01:34:30",1311960,7.939,164.2,5.931,1.118,15.09,104.5994,11.05,12.09,15.75,0,110.3,13.21,11.84,126.2
"2016-01-24 01:35:00",1311961,8.31,165.4,6.582,1.309,15.5,104.5997,11.05,12.14,15.73,0,110.3,13.21,11.84,127.4
"2016-01-24 01:35:30",1311962,8.71,166.8,6.983,1.399,15.75,104.5965,11.04,12.13,15.85,0,110.3,13.21,11.83,128.8
"2016-01-24 01:36:00",1311963,7.189,160.8,0.954,0.124,13.76,104.5884,11.02,12,15.77,0,110.3,13.25,11.81,122.8
"2016-01-24 01:36:30",1311964,7.966,166.2,7.341,1.398,15.19,104.5761,10.99,12.08,15.93,0,110.3,13.21,11.78,128.2
"2016-01-24 01:37:00",1311965,8.6,169,7.496,1.416,16.56,104.5646,10.96,12.23,16.28,0,110.3,13.21,11.75,131.0
"2016-01-24 01:37:30",1311966,9.19,170.7,7.035,1.36,17.32,104.5664,10.96,12.18,16.11,0,110.3,13.21,11.75,132.7
"2016-01-24 01:38:00",1311967,8.04,164.2,6.397,1.209,15.43,104.565,10.96,12.06,15.64,0,110.3,13.21,11.75,126.2
"2016-01-24 01:38:30",1311968,9.13,168.5,7.198,1.411,16.55,104.5523,10.93,12.09,15.44,0,110.3,13.21,11.72,130.5
"2016-01-24 01:39:00",1311969,8.52,163.7,6.317,1.283,15.2,104.5475,10.91,12.03,15.27,0,110.3,13.2,11.70,125.7
"2016-01-24 01:39:30",1311970,7.873,160.3,1.446,0.251,13.59,104.5351,10.88,11.91,15.14,0,110.3,13.25,11.67,122.3
"2016-01-24 01:40:00",1311971,8.03,163.1,3.935,1.007,14.11,104.534,10.88,12,15.3,0,110.3,13.2,11.67,125.1
"2016-01-24 01:40:30",1311972,9.71,167.7,6.902,1.45,17.6,104.5343,10.88,12.1,15.22,0,110.3,13.2,11.67,129.7
"2016-01-24 01:41:00",1311973,9.64,166.7,7.535,1.352,17.5,104.534,10.88,12.09,15.17,0,110.3,13.2,11.67,128.7
"2016-01-24 01:41:30",1311974,7.929,158.8,3.32,0.16,14.28,104.5358,10.88,11.97,14.95,0,110.3,13.24,11.67,120.8
"2016-01-24 01:42:00",1311975,9.18,168.3,6.774,1.405,16.33,104.5338,10.88,12.04,15.35,0,110.3,13.2,11.67,130.3
"2016-01-24 01:42:30",1311976,8.24,158.8,1.228,0.277,13.79,104.5267,10.86,11.91,15.27,0,110.3,13.24,11.65,120.8
"2016-01-24 01:43:00",1311977,8.24,159,1.112,0.257,13.42,104.5208,10.85,11.84,15.12,0,110.3,13.24,11.64,121.0
"2016-01-24 01:43:30",1311978,8.92,163.7,7.436,1.262,15.47,104.5163,10.83,11.89,15.14,0,110.3,13.2,11.62,125.7
"2016-01-24 01:44:00",1311979,9.39,169.1,7.469,1.399,16.92,104.507,10.81,12.04,15.57,0,110.3,13.2,11.60,131.1
"2016-01-24 01:44:30",1311980,9.1,171.9,8.35,1.376,17.31,104.501,10.8,12.03,15.67,0,110.3,13.21,11.59,133.9
"2016-01-24 01:45:00",1311981,8.57,169.5,7.846,1.252,16.46,104.5025,10.8,11.98,15.85,0,110.3,13.21,11.59,131.5
"2016-01-24 01:45:30",1311982,7.543,164.5,5.578,1.269,14.48,104.5028,10.8,11.88,16.35,0,110.3,13.21,11.59,126.5
"2016-01-24 01:46:00",1311983,6.832,163.7,3.662,0.431,13.02,104.4899,10.77,11.77,16.37,0,110.3,13.25,11.56,125.7
"2016-01-24 01:46:30",1311984,6.9,161.3,5.155,0.36,12.81,104.4703,10.72,11.76,16.34,0,110.3,13.25,11.51,123.3
"2016-01-24 01:47:00",1311985,8.92,164.6,7.235,1.506,15.49,104.4704,10.72,11.85,16.05,0,110.3,13.21,11.51,126.6